Вернуться в каталог

DELTA 1 DEB

АктивенLEO
NORAD 42648·DEBRIS·🇺🇸 United States

Запущен Jun 12, 1975 с Vandenberg Space Force Base

Loading…

Ближайшие Пролёты (ближайшие 24 часа)

TLE

УстаревающийSource: Space-Track

Эпоха: Sep 11, 2026, 14:19 UTC

1 42648U 75052MH  26254.59655155  .00005652  00000-0  70968-2 0  9993
2 42648 100.3403   7.7612 0199152 258.7328  99.1369 13.56595921624131

Отслеживайте DELTA 1 DEB в реальном времени с AllMySat

Download on the App Store